sat.trackr.live / text

‹ back to catalog

LEMUR-2-POLO-11

NORAD 68493 · 2026-067CF

PAYLOAD ACTIVE UNKNOWN

§ Identity

Operator
Country
LUXE
Launch date
2026-03-30
Launch site
AFWTR
Launch vehicle
Mass (kg)
RCS (m²)

External: N2YO · Heavens-Above · Gunter

§ Orbital elements

Epoch: 2026-09-19T03:45:17.439840Z

Period
96.48 min
Inclination
97.7751°
Eccentricity
0.0005304
Mean motion
14.92478880 rev/d
Perigee alt
586.5 km
Apogee alt
593.9 km
Semi-major
6,968.3 km
B*
4.5372e-4
RAAN
219.1157°
Arg perigee
76.8410°
Mean anomaly
283.3401°
Rev number
2,573

§ Raw data

LEMUR-2-POLO-111 68493U 26067CF  26262.15645185  .00004600  00000+0  45372-3 0  99972 68493  97.7751 219.1157 0005304  76.8410 283.3401 14.92478880 25731

JSON: /api/v1/satellites/68493 · /tle

For live sub-satellite position, see the globe view (requires WebGL).

§ Visibility from observer

Set your observer location to see the next 7 days of passes ≥ 10°. The values pass through the URL so the page stays shareable.

No JS? Fill the form by hand. The geolocation button needs JavaScript.